www.pogodaiklimat.ru
ПОГОДА в Милтоне
Время
и дата
02:46 29.11
02:56 29.11
03:13 29.11
03:21 29.11
03:34 29.11
03:49 29.11
03:56 29.11
04:56 29.11
05:56 29.11
06:56 29.11
07:56 29.11
08:56 29.11
09:35 29.11
09:56 29.11
10:56 29.11
11:21 29.11
11:56 29.11
12:56 29.11
13:56 29.11
14:56 29.11
15:56 29.11
16:56 29.11
17:56 29.11
18:56 29.11
19:56 29.11
20:56 29.11
21:22 29.11
21:56 29.11
22:56 29.11
23:56 29.11
00:56 30.11
01:56 30.11
02:03 30.11
02:56 30.11
03:56 30.11
04:56 30.11
05:56 30.11
06:10 30.11
06:25 30.11
06:40 30.11
06:56 30.11
07:21 30.11
07:56 30.11
08:01 30.11
08:56 30.11
09:56 30.11
10:56 30.11
11:56 30.11
Ветер
(напр.,м/с)
Видим. Явления Облачность Т
(С)
Тd
(С)
f
(%)
Тe
(С)
Тes
(С)
Комфортность P
(гПа)
Po
(гПа)
Тmin
(С)
Tmax
(С)
R
(мм)
R24
(мм)
S
(см)
СВ 2 2 км дымка ?/? +12.8 +12.8 100 +12 +12 1010.0
СВ 3 1 км дымка ?/? +12.8 +12.8 100 +11 +11 1015.1 1010.0
СВ 2 3 км дымка 10/10 60 м +12.8 +12.8 100 +12 +12 1010.0
СВ 2 13 км 10/10 60 м +13.3 +13.3 100 +12 +12 1010.0
штиль 0 3 км дымка 10/10 60 м +13.9 +13.9 100 +13 +13 1010.0
В 3 400 м туман 10/10 60 м +13.9 +13.9 100 +13 +13 1009.6
СВ 2 400 м туман 10/10 60 м +13.9 +13.9 100 +13 +13 1014.9 1009.6
штиль 0 400 м туман 10/10 60 м +13.9 +13.9 100 +13 +13 1015.2 1010.0
В 3 6 км дымка 5/5 60 м +15.0 +15.0 100 +14 +14 1015.6 1010.3 +11.1 +15.0
В 3 16 км 8/8 660 m
[Ac]
+15.6 +15.6 100 +15 +15 1016.4 1011.0
В 3 16 км 8/8 720 m
[Ac]
+17.8 +16.7 93 +18 +18 1016.8 1011.7
ЮВ 5 16 км 8/5 1110 m
[Ac]
+20.0 +18.9 93 +23 +23 комфорт 1017.1 1011.7
ЮВ 6 16 км 8/8 750 m
[Ac]
+21.7 +19.4 87 +27 +27 душно 1011.7
ЮВ 4 16 км 10/8 840 m
[Ac]
+22.2 +18.9 82 +28 +28 душно 1017.2 1012.0
ЮВ 7
{11}
16 км 8/8 540 m
[Ac]
+23.3 +18.9 76 +30 +30 очень
душно
1016.7 1011.3
ЮВ 5 16 км 10/10 720 м +23.3 +18.9 76 +30 +30 очень
душно
1011.0
ЮВ 6
{12}
16 км 10/10 690 м +23.9 +18.9 74 +29 +29 душно 1015.0 1009.6 +15.0 +23.9
Ю 5
{10}
16 км 10/10 630 м +23.3 +19.4 79 +30 +30 очень
душно
1014.2 1009.0
ЮВ 7
{11}
16 км слабый дождь 10/10 630 m
[Ns]
+22.8 +19.4 81 +29 +29 очень
душно
1013.4 1008.3
ЮВ 8
{12}
16 км 10/10 600 м +22.8 +19.4 81 +29 +29 очень
душно
1013.1 1008.0 0.5
ЮВ 7
{10}
16 км 10/10 600 м +22.8 +19.4 81 +29 +29 очень
душно
1013.0 1008.0
ЮВ 5
{10}
16 км 10/10 630 м +22.8 +19.4 81 +29 +29 очень
душно
1013.6 1008.3
Ю 4 16 км 10/10 480 м +22.2 +20.0 87 +28 +28 душно 1013.3 1008.0 +22.2 +23.9 0.5
Ю 7
{10}
16 км 10/10 660 м +22.8 +20.0 84 +29 +29 очень
душно
1013.6 1008.3
Ю 7
{11}
16 км 10/10 570 м +22.8 +20.6 87 +30 +30 очень
душно
1013.7 1008.6
Ю 6
{10}
16 км 10/10 480 м +23.3 +20.6 85 +31 +31 очень
душно
1014.3 1009.0
Ю 5 16 км 10/10 420 м +23.3 +20.6 85 +31 +31 очень
душно
1009.0
Ю 6
{10}
16 км 10/10 420 м +23.3 +21.1 87 +31 +31 очень
душно
1014.0 1009.0
Ю 7
{10}
16 км 10/10 240 м +22.8 +21.7 94 +31 +31 очень
душно
1013.6 1008.6
Ю 5
{9}
16 км 10/10 270 м +22.8 +21.7 94 +31 +31 очень
душно
1013.5 1008.3 +22.2 +23.3
Ю 5 14 км 10/10 240 м +22.8 +21.7 94 +31 +31 очень
душно
1013.4 1008.3
Ю 4 14 км 10/10 270 м +22.8 +22.2 96 +31 +31 очень
душно
1012.9 1008.0
Ю 5 14 км 10/10 270 м +22.8 +22.2 96 +31 +31 очень
душно
1008.0
Ю 5
{9}
14 км 10/10 180 м +23.3 +22.8 97 +32 +32 очень
душно
1012.8 1007.6
Ю 4 14 км 10/10 180 м +22.8 +22.2 96 +31 +31 очень
душно
1012.9 1008.0
ЮЗ 4 16 км 10/10 210 м +23.3 +22.2 94 +32 +32 очень
душно
1013.0 1008.0
Ю 5
{8}
16 км 10/10 210 м +23.3 +22.2 94 +32 +32 очень
душно
1012.7 1007.6 +22.8 +23.9 0.5
Ю 4 16 км гроза 10/10 210 m
[Cb]
+23.3 +22.2 94 +32 +32 очень
душно
1008.0
СЗ 4 8 км гроза со слабым дождем, дымка 10/10 210 m
[Cb]
+23.3 +22.2 94 +32 +32 очень
душно
1009.0
СЗ 5
{11}
2 км гроза с сильным дождем, дымка 10/10 210 m
[Cb]
+20.0 +19.4 96 +23 +23 комфорт 1010.0
З 4
{9}
5 км гроза с дождем, дымка 10/8 150 m
[Ac Cb]
+20.0 +19.4 96 +23 +23 комфорт 1015.0 1009.6
З 5 11 км гроза с сильным дождем 10/10 390 m
[Cb]
+19.4 +19.4 100 +22 +22 комфорт 1010.7
З 5 11 км гроза с дождем 10/10 390 m
[Cb]
+19.4 +18.9 97 +22 +22 комфорт 1016.3 1011.0
З 4 5 км гроза с дождем, дымка 10/8 210 m
[Ac Cb]
+19.4 +18.9 97 +22 +22 комфорт 1011.7
СЗ 2 16 км слабый дождь 8/2 240 m
[Ac Ns]
+19.4 +18.9 97 +22 +23 комфорт 1017.6 1012.3 20.6
СЗ 4 16 км 10/2 1140 m
[Ac]
+20.0 +19.4 96 +23 +24 комфорт 1018.6 1013.3
С 6
{9}
16 км 8/2 450 m
[Ac Ci]
+22.8 +19.4 81 +29 +30 очень
душно
1018.8 1013.7
С 6
{10}
16 км 8/5 750 m
[Ci]
+23.3 +16.7 66 +28 +30 душно 1018.5 1013.3 +19.4 +23.9 20.6
Местоположение метеостанции Whiting Field South: широта 30.6972 долгота -87.0200 высота над уровнем моря 54 м.
В архиве по умолчанию представлена погода в Милтоне за последние 1-2 суток. Обновление информации о фактической погоде в базе происходит ежечасно! Архивные данные за месяц целиком и за предыдущие месяцы Вы можете получить, выбрав интересующий диапазон дат из раскрывающегося списка и нажав кнопку "Ввод!".
Внимание! Архив погоды МЕТАР в базе сайта по станциям, не включенным в климатический монитор, хранится не более 60 дней. Нет смысла пытаться выбрать более раннюю дату.
*Определитесь, кто Вы:
Внимание! Время в таблицах - местное (без учета летнего времени). Для получения всемирного времени необходимо вычесть поправку, которая равна -6 ч.
Смотрите также архив погоды в соседних городах и на ближайших метеорологических станциях:
Партнеры нашего сайта:      
Пояснения к столбцам:
  • Ветер - указаны скорость ветра в м/с - средняя за 10 мин, порывы в срок и между сроками (в фигурных скобках) и направление, откуда дует ветер: С - северный,
  • СВ - северо-восточный, В - восточный, ЮВ - юго-восточный, Ю - южный, ЮЗ - юго-западный, З - западный, СЗ - северо-западный.
  • Видимость - горизонтальная дальность видимости в метрах или километрах. При видимости от 1 до 10 км при отсутствии осадков обычно наблюдается дымка, при ухудшении видимости до 1 км и менее - туман. В сухую погоду видимость может ухудшаться дымом, пылью или мглою.
  • Явления - указаны атмосферные явления, наблюдавшиеся в срок или в последний час перед сроком; фигурными скобками обозначены явления, наблюдавшиеся между сроками (за 1-3 часа до срока); квадратными скобками обозначены град или гололедные отложения с указанием их диаметра в мм.
  • Облачность - указаны через наклонную черту общая и нижняя облачность в баллах и высота нижней границы облаков в метрах; квадратными скобками обозначены формы облаков: Ci - перистые, Cs - перисто-слоистые, Cc - перисто-кучевые, Ac - высококучевые, As - высокослоистые, Sc - слоисто-кучевые, Ns - слоисто-дождевые, Cu - кучевые, Cb - кучево-дождевые. Подробнее классификацию облаков см. в Атласе облаков (PDF).
  • T - Температура воздуха - температура, измеренная на высоте 2 м над землей.
  • Td - Температура точки росы - температура, при понижении до которой содержащийся в воздухе водяной пар достигнет насыщения.
  • f - Относительная влажность воздуха - влажноcть воздуха, измеренная на высоте 2 м над землей.
  • Te - Эффективная температура - температура, которую ощущает одетый по сезону человек в тени. Характеристика душности погоды. При расчете учитывается влияние влажности воздуха и скорости ветра на теплоощущения человека.
  • Tes - Эффективная температура на солнце - температура, которую ощущает человек, с поправкой на солнечный нагрев. Характеристика знойности погоды. Зависит от высоты солнца над горизонтом, облачности и скорости ветра. Ночью, в пасмурную погоду, а также при ветре 12 м/с и более поправка равна нулю.
  • P - Атмосферное давление - приведенное к уровню моря атмосферное давление.
  • Po - Атмосферное давление - измеренное на уровне метеостанции атмосферное давление.
  • Tmin - Минимальная температура - минимум температуры воздуха на высоте 2 м над землей.
  • Tmax - Максимальная температура - максимум температуры воздуха на высоте 2 м над землей.
  • R - Количество осадков - Количество выпавших осадков за период времени, мм. При наведении курсора мыши на число - период времени, за который выпало указанное количество осадков.
  • R24 - Количество осадков - Количество выпавших осадков за 24 часа, мм.
  • S - Снежный покров - Высота снежного покрова, см. При наведении курсора мыши на число - состояние снежного покрова и степень покрытия местности в баллах.